Home   Weather   Jacksonville   Past weeks

Flag for USA Past Weather in Jacksonville, Florida, USA — Yesterday and Last 2 Weeks

Now
79 °F

Passing clouds.


Feels Like: 83 °F
Forecast: 70 / 87 °F
Wind: 10 mph from South

Location: Jacksonville Naval Air Station

Current Time: Sep 30, 2016 at 4:34:03 AM

Latest Report: Sep 30, 2016 at 3:53 AM


Visibility: 10 mi

Pressure: 29.95 "Hg

Humidity: 84%

Dew Point: 74 °F

Location of JacksonvilleLocation

Past Weather in Jacksonville — Graph

°F

Jacksonville Temperature Yesterday

Maximum temperature yesterday: 91 °F (at 3:53 PM)
Minimum temperature yesterday: 76 °F (at 6:53 AM)
Average temperature yesterday: 82 °F

High & Low Weather Summary for the Past Weeks

 TemperatureHumidityPressure
High93 °F (Sep 24, 3:53 PM)91% (Sep 20, 1:53 AM)30.09 "Hg (Sep 20, 1:53 AM)
Low74 °F (Sep 20, 1:53 AM)44% (Sep 24, 3:53 PM)29.87 "Hg (Sep 27, 4:53 PM)
Average82 °F72%29.99 "Hg
* Reported Sep 15 2:53 AM — Sep 30 2:53 AM, Jacksonville, Weather by CustomWeather, © 2016

Note: Actual official high and low records may vary slightly from our data, if they occured in-between our weather recording intervals... More about our weather records

Advertising

Jacksonville Weather History for the Previous 24 Hours

Scroll right to see more
 ConditionsComfort  
Time TempWeatherWind HumidityBarometerVisibility
2:53 AM
Fri, Sep 30
78 °FClear.6 mph84%29.96 "Hg10 mi
1:53 AM79 °FClear.7 mph84%29.97 "Hg10 mi
12:53 AM80 °FClear.6 mph81%29.99 "Hg10 mi
11:53 PM
Thu, Sep 29
80 °FPassing clouds.6 mph79%30.00 "Hg10 mi
10:53 PM81 °FPassing clouds.7 mph77%29.99 "Hg10 mi
9:53 PM82 °FPassing clouds.10 mph77%29.98 "Hg10 mi
8:53 PM83 °FPassing clouds.10 mph72%29.98 "Hg10 mi
7:53 PM85 °FPassing clouds.9 mph68%29.96 "Hg10 mi
6:53 PM87 °FScattered clouds.9 mph63%29.95 "Hg10 mi
5:53 PM87 °FPartly sunny.12 mph65%29.93 "Hg10 mi
4:53 PM90 °FPartly sunny.12 mph56%29.93 "Hg10 mi
3:53 PM91 °FBroken clouds.14 mph54%29.93 "Hg10 mi
2:53 PM90 °FBroken clouds.12 mph56%29.95 "Hg10 mi
1:53 PM90 °FPartly sunny.10 mph54%29.97 "Hg10 mi
12:53 PM88 °FBroken clouds.6 mph57%29.99 "Hg10 mi
11:53 AM86 °FPartly sunny.6 mph63%30.01 "Hg10 mi
10:53 AM84 °FScattered clouds.9 mph67%30.01 "Hg10 mi
9:53 AM82 °FBroken clouds.9 mph72%30.00 "Hg10 mi
8:53 AM78 °FLight rain. Partly sunny.13 mph79%30.00 "Hg10 mi
7:53 AM76 °FScattered clouds.5 mph82%29.98 "Hg10 mi
6:53 AM76 °FPassing clouds.6 mph82%29.97 "Hg10 mi
5:53 AM77 °FPartly cloudy.6 mph79%29.96 "Hg10 mi
4:53 AM77 °FPassing clouds.5 mph77%29.96 "Hg10 mi
Weather by CustomWeather, © 2016

See weather overviewHow to use our weather pages